Location: Newark
(58.8333°N, 23.5833°E)
Time: 08:34:43
(UTC+00:00)

METEOR M2 - Pass Details

Date: 10 December 2019
Orbit: 819 x 827 km, 98.5° (Epoch: 20 January)

Event Time Altitude Azimuth Distance (km) Brightness Sun altitude
Exits shadow 16:18:29 27° 37° (NE) 1,531 ? -19.5°
Drops below altitude 10° 16:22:14 10° 355° (N) 2,432 ? -20.0°
Sets 16:24:52 0° 344° (NNW) 3,368 ? -20.3°
